Weather in Ivanichi

Ukraine / Volyn Oblast     50˚38′10″N   24˚21′31″E
temp.,
°C
wind,
m/s
gust,
m/s
humid.,
%
clouds,
%
prec.,
mm/h
press.,
hPa
HPBL,
m
29 november, sun
sun2923:00−1˚nnw348999 0.1 1019327
02:00−1˚wnw2395100 0.2 1019199
05:00−2˚sw1197100 0.3 101978
08:00−3˚wsw119690 0.4 101921
11:00−1˚wnw229083 0.1 1020297
14:00wnw238290 0.1 1020556
17:00−1˚wnw238793 0.1 102088
20:00−2˚wnw359392 0.1 1021190
30 november, mon
mon3023:00−2˚w359780 0.1 1022190
02:00−2˚w249786 0.3 1023193
05:00−2˚w349883 0.1 1023160
08:00−3˚w239575 0.2 102569
11:00−1˚w358513 0.0 1026401
14:00w348030 0.0 1027648
17:00wsw248289 0.0 1027207
20:00−1˚wsw247995 0.1 1028286
1 december, tue
tue123:00−1˚sw2478100 0.0 1028303
02:00−1˚ssw2377100 0.0 1028283
05:00−3˚sse238263 0.0 102742
08:00−4˚se358731 0.0 1028118
11:00−1˚sse47760 0.0 1028483
14:00se46710 0.0 1027542
17:00−3˚ese48850 0.0 1027199
20:00−3˚ese39870 0.0 1028218
2 december, wed
wed223:00−4˚ese38880 0.0 1028209
02:00−4˚e37890 0.0 1028159
05:00−4˚e37920 0.0 1027185
08:00−4˚e37952 0.0 1026211
11:00−2˚e359056 0.0 1026273
14:00e359076 0.0 1024296
17:00−1˚e4695100 0.0 1024397
20:00−1˚se2594100 0.1 1024291
3 december, thu
thu323:00−1˚ese2497100 0.0 1023155
02:00ese3595100 0.1 1022183
05:00−1˚se369499 0.0 1021202
08:00−1˚se489290 0.0 1021351
11:00+1˚se5879100 0.0 1021644
14:00+2˚se6978100 0.0 1020651
17:00−1˚ese5118966 0.0 1019366
20:00−1˚se6149156 0.0 1019463